Weather reports worldwide

Advertisment
Lerida, Spain (8171): temperature & dewpoint: 06.12.2019 12:00:00 - 12.12.2019 12:00:00 (CET)Lerida, Spain (8171): wind speed & gusts: 06.12.2019 12:00:00 - 12.12.2019 12:00:00 (CET)Lerida, Spain (8171): wind direction: 06.12.2019 12:00:00 - 12.12.2019 12:00:00 (CET)Lerida, Spain (8171): reduced air pressure: 06.12.2019 12:00:00 - 12.12.2019 12:00:00 (CET)Lerida, Spain (8171): visibility: 06.12.2019 12:00:00 - 12.12.2019 12:00:00 (CET)Lerida, Spain (8171): precipitation: 06.12.2019 12:00:00 - 12.12.2019 12:00:00 (CET)
Date & Time tt [°C] td [°C] ff [km/h] ff [kn] fx [km/h] fx [kn] dd ppp [hPa] vv [km] rr [mm]
12.12.2019 12:00:00 - - - - - - - - - -
12.12.2019 11:00:00 10,7 3,7 16 9 - - WSW 1016,5 20 0,0
12.12.2019 10:00:00 9,2 3,2 15 8 - - SW 1016,6 45 -
12.12.2019 09:00:00 7,6 2,5 11 6 - - WSW 1016,7 20 0,0
12.12.2019 08:00:00 7,8 2,5 11 6 - - W 1016,8 20 0,0
12.12.2019 07:00:00 8,0 2,7 15 8 - - W 1016,9 20 -
12.12.2019 06:00:00 7,1 2,2 16 9 - - W 1017,2 20 0,0
12.12.2019 05:00:00 6,5 2,2 15 8 - - W 1017,7 20 0,0
12.12.2019 04:00:00 6,3 1,8 13 7 - - WSW 1018,4 20 -
12.12.2019 03:00:00 7,3 2,0 15 8 - - SW 1018,4 20 0,0
12.12.2019 02:00:00 7,3 2,2 9 5 - - W 1018,6 20 0,0
12.12.2019 01:00:00 7,7 2,4 15 8 - - W 1018,8 20 -
12.12.2019 00:00:00 7,3 2,2 13 7 - - WSW 1019,4 20 0,0
11.12.2019 23:00:00 7,1 1,4 15 8 - - WSW 1019,3 20 0,0
11.12.2019 22:00:00 8,9 1,3 26 14 - - W 1019,3 20 -
11.12.2019 21:00:00 8,8 1,5 26 14 - - W 1019,4 20 0,0
11.12.2019 20:00:00 9,1 1,5 34 18 - - WNW 1018,8 20 0,0
11.12.2019 19:00:00 9,5 1,9 35 19 - - W 1018,2 20 -
11.12.2019 18:00:00 9,9 2,7 31 17 - - W 1017,3 20 0,0
11.12.2019 17:00:00 11,7 3,2 28 15 - - W 1016,2 20 0,0
11.12.2019 16:00:00 12,8 5,7 28 15 - - W 1016,0 20 -
11.12.2019 15:00:00 10,9 7,2 13 7 - - SW 1016,4 18 0,0
11.12.2019 14:00:00 9,5 6,0 13 7 - - WSW 1017,3 14 0,0
11.12.2019 13:00:00 8,1 5,7 11 6 - - SSW 1018,4 10 -
11.12.2019 12:00:00 6,5 5,0 9 5 - - SSW 1019,3 7 0,0
11.12.2019 11:00:00 6,4 4,6 8 4 - - S 1019,9 12 0,0
11.12.2019 10:00:00 2,7 2,1 5 3 - - SW 1020,6 2,4 -
11.12.2019 09:00:00 1,5 0,8 2 1 - - SE 1020,7 3,0 0,0
11.12.2019 08:00:00 1,5 0,3 5 3 - - SSW 1021,0 - 0,0
11.12.2019 07:00:00 2,1 1,1 4 2 - - NNE 1021,0 9 -
11.12.2019 06:00:00 2,8 1,5 4 2 - - N 1021,2 12 0,0
11.12.2019 05:00:00 3,4 2,1 4 2 - - ENE 1021,7 12 0,0
11.12.2019 04:00:00 3,3 2,0 8 4 - - ENE 1022,3 13 -
11.12.2019 03:00:00 3,6 2,3 8 4 - - NE 1022,5 13 0,0
11.12.2019 02:00:00 3,5 2,2 8 4 - - NNE 1023,2 13 0,0
11.12.2019 01:00:00 4,4 2,6 8 4 - - NE 1023,4 16 -
11.12.2019 00:00:00 5,2 3,0 8 4 - - NNE 1023,7 17 0,0
10.12.2019 23:00:00 5,5 3,2 8 4 - - NNE 1023,7 16 0,0
10.12.2019 22:00:00 5,6 3,3 8 4 - - NNE 1023,7 16 -
10.12.2019 21:00:00 6,1 3,6 8 4 - - NNE 1023,8 13 0,0
10.12.2019 20:00:00 6,6 3,6 4 2 - - NNE 1024,0 8 0,0
10.12.2019 19:00:00 8,0 4,4 8 4 - - NNE 1024,0 10 -
10.12.2019 18:00:00 9,5 4,7 8 4 - - NE 1023,7 16 0,0
10.12.2019 17:00:00 12,7 4,9 2 1 - - S 1023,7 10 0,0
10.12.2019 16:00:00 13,1 4,3 11 6 - - SSW 1024,1 - -
10.12.2019 15:00:00 12,9 4,8 11 6 - - SW 1024,4 20 0,0
10.12.2019 14:00:00 12,1 4,8 13 7 - - SW 1025,1 20 0,0
10.12.2019 13:00:00 11,1 5,0 13 7 - - SSW 1026,0 19 -
10.12.2019 12:00:00 10,1 5,1 13 7 - - SSW 1026,6 19 0,0
10.12.2019 11:00:00 9,1 5,1 13 7 - - SSW 1027,2 18 0,0
10.12.2019 10:00:00 7,6 4,5 9 5 - - SW 1026,8 40 -
10.12.2019 09:00:00 6,5 3,6 9 5 - - SW 1026,3 19 0,0
10.12.2019 08:00:00 5,8 3,5 11 6 - - S 1026,1 19 0,0
10.12.2019 07:00:00 7,4 3,1 9 5 - - WSW 1025,5 19 -
10.12.2019 06:00:00 7,5 3,4 11 6 - - SW 1025,5 19 0,0
10.12.2019 05:00:00 8,0 3,6 22 12 - - WNW 1025,2 20 0,0
10.12.2019 04:00:00 8,3 3,9 28 15 - - WNW 1025,4 20 -
10.12.2019 03:00:00 8,6 4,2 28 15 - - WNW 1025,5 20 0,0
10.12.2019 02:00:00 9,0 4,2 29 16 - - WNW 1025,7 20 0,0
10.12.2019 01:00:00 8,9 4,7 21 11 - - W 1026,0 20 -
10.12.2019 00:00:00 9,1 4,5 22 12 - - W 1026,4 20 0,0
09.12.2019 23:00:00 9,5 4,3 22 12 - - W 1026,1 20 0,0
09.12.2019 22:00:00 9,7 4,3 22 12 - - W 1025,8 20 -
09.12.2019 21:00:00 9,8 4,0 29 16 - - W 1025,4 20 0,0
09.12.2019 20:00:00 10,3 4,0 24 13 - - W 1025,3 20 0,0
09.12.2019 19:00:00 10,9 3,4 26 14 - - W 1024,4 20 -
09.12.2019 18:00:00 11,6 3,9 29 16 - - W 1023,2 20 0,0
09.12.2019 17:00:00 12,7 4,4 31 17 - - W 1023,0 20 0,0
09.12.2019 16:00:00 13,6 6,2 34 18 - - W 1022,0 20 -
09.12.2019 15:00:00 14,0 6,1 41 22 76 41 W 1021,5 19 0,0
09.12.2019 14:00:00 13,9 6,0 46 25 76 41 W 1021,7 20 0,0
09.12.2019 13:00:00 13,4 5,8 41 22 - - W 1022,4 45 -
09.12.2019 12:00:00 12,6 5,5 39 21 - - W 1022,9 20 0,0
09.12.2019 11:00:00 12,0 5,8 31 17 - - W 1023,6 19 0,0
09.12.2019 10:00:00 10,7 4,8 28 15 - - W 1023,3 19 -
09.12.2019 09:00:00 8,7 4,9 22 12 - - W 1022,9 19 0,0
09.12.2019 08:00:00 5,5 4,9 11 6 - - SW 1023,0 16 0,0
09.12.2019 07:00:00 3,2 3,1 8 4 - - SW 1023,4 8 -
09.12.2019 06:00:00 2,8 2,7 5 3 - - W 1023,6 0,5 0,2
09.12.2019 05:00:00 4,3 4,0 2 1 - - SSE 1023,6 0,1 0,0
09.12.2019 04:00:00 5,5 5,2 4 2 - - WSW 1024,0 0,2 -
09.12.2019 03:00:00 6,1 5,8 2 1 - - ENE 1023,8 2,1 0,0
09.12.2019 02:00:00 7,1 6,5 4 2 - - NNE 1023,2 4,3 0,0
09.12.2019 01:00:00 7,4 6,8 4 2 - - NE 1023,0 - -
09.12.2019 00:00:00 7,5 6,9 4 2 - - NNE 1023,3 6 0,0
08.12.2019 23:00:00 7,5 6,9 4 2 - - NE 1022,5 - 0,0
08.12.2019 22:00:00 7,5 6,8 4 2 - - N 1022,6 7 -
08.12.2019 21:00:00 7,4 6,8 4 2 - - E 1022,7 8 0,0
08.12.2019 20:00:00 7,3 6,7 4 2 - - SSW 1022,8 6 0,0
08.12.2019 19:00:00 7,2 6,5 2 1 - - SSW 1022,6 6 -
08.12.2019 18:00:00 7,3 6,6 2 1 - - SSE 1022,4 8 0,0
08.12.2019 17:00:00 7,4 6,5 4 2 - - SSE 1022,3 8 0,0
08.12.2019 16:00:00 7,3 6,6 4 2 - - S 1022,5 8 -
08.12.2019 15:00:00 7,0 6,6 4 2 - - S 1022,6 7 0,0
08.12.2019 14:00:00 6,8 6,4 5 3 - - SSW 1023,1 6 0,0
08.12.2019 13:00:00 6,7 6,4 8 4 - - SW 1024,0 7 -
08.12.2019 12:00:00 6,6 6,5 8 4 - - WSW 1025,0 7 0,0
08.12.2019 11:00:00 6,4 6,4 9 5 - - W 1025,4 6 0,0
08.12.2019 10:00:00 6,2 6,2 8 4 - - SW 1025,4 1,6 -
08.12.2019 09:00:00 6,2 6,2 8 4 - - WSW 1025,2 4,1 0,0
08.12.2019 08:00:00 6,6 6,6 8 4 - - W 1025,0 3,2 0,0
08.12.2019 07:00:00 7,0 7,0 5 3 - - WSW 1024,5 3,0 -
08.12.2019 06:00:00 7,0 7,0 2 1 - - E 1024,3 2,0 0,0
08.12.2019 05:00:00 6,9 6,9 4 2 - - NNE 1024,7 1,7 0,0
08.12.2019 04:00:00 7,0 7,0 4 2 - - NE 1025,0 1,2 -
08.12.2019 03:00:00 7,2 7,2 4 2 - - NE 1025,6 1,9 0,0
08.12.2019 02:00:00 7,2 7,2 2 1 - - NE 1025,6 3,6 0,0
08.12.2019 01:00:00 7,3 7,3 4 2 - - ENE 1025,7 2,5 -
08.12.2019 00:00:00 7,3 7,3 2 1 - - ENE 1026,2 1,8 0,0
07.12.2019 23:00:00 7,4 7,4 4 2 - - ENE 1025,9 2,6 0,0
07.12.2019 22:00:00 7,3 7,3 2 1 - - ENE 1025,8 1,9 -
07.12.2019 21:00:00 7,3 7,3 0 0 - - N 1025,7 1,4 0,0
07.12.2019 20:00:00 7,2 7,2 2 1 - - SSW 1025,4 1,0 0,0
07.12.2019 19:00:00 7,1 7,1 4 2 - - S 1024,8 1,5 -
07.12.2019 18:00:00 7,1 7,1 4 2 - - S 1024,6 1,7 0,0
07.12.2019 17:00:00 7,1 7,1 4 2 - - S 1024,4 2,1 0,0
07.12.2019 16:00:00 7,1 7,1 2 1 - - SSE 1024,4 2,3 -
07.12.2019 15:00:00 7,2 7,2 4 2 - - S 1024,4 3,7 0,0
07.12.2019 14:00:00 7,1 7,1 4 2 - - W 1024,9 5 0,0
07.12.2019 13:00:00 6,7 6,7 4 2 - - WSW 1025,8 - -
07.12.2019 12:00:00 6,5 6,5 5 3 - - WSW 1026,4 4,8 0,0
07.12.2019 11:00:00 6,4 6,4 4 2 - - W 1026,3 4,2 0,2
07.12.2019 10:00:00 6,3 6,3 5 3 - - SSW 1025,9 0,2 -
07.12.2019 09:00:00 6,2 6,2 4 2 - - W 1025,5 0,7 0,0
07.12.2019 08:00:00 6,2 6,2 5 3 - - SSW 1025,1 0,2 0,0
07.12.2019 07:00:00 6,0 6,0 8 4 - - WSW 1024,8 0,2 -
07.12.2019 06:00:00 5,8 5,8 8 4 - - SW 1024,5 0,1 0,0
07.12.2019 05:00:00 5,5 5,5 4 2 - - S 1024,6 0,1 0,0
07.12.2019 04:00:00 5,6 5,6 4 2 - - SSE 1024,8 0,1 -
07.12.2019 03:00:00 5,3 5,3 4 2 - - S 1025,1 0,1 0,0
07.12.2019 02:00:00 4,8 4,8 4 2 - - ENE 1024,8 0,1 0,0
07.12.2019 01:00:00 4,6 4,5 2 1 - - E 1024,9 0,2 -
07.12.2019 00:00:00 5,6 5,5 4 2 - - ENE 1025,1 0,1 0,0
06.12.2019 23:00:00 6,5 6,2 2 1 - - NNE 1024,6 0,7 0,0
06.12.2019 22:00:00 7,5 7,2 5 3 - - NNE 1024,3 1,0 -
06.12.2019 21:00:00 8,2 7,8 8 4 - - NNE 1024,2 2,4 0,0
06.12.2019 20:00:00 8,8 8,2 8 4 - - NE 1024,0 3,1 0,0
06.12.2019 19:00:00 9,5 8,4 5 3 - - NE 1023,5 - -
06.12.2019 18:00:00 11,3 8,7 4 2 - - S 1023,0 6 0,0
06.12.2019 17:00:00 13,6 9,2 4 2 - - WSW 1022,7 17 0,0
06.12.2019 16:00:00 14,2 9,6 8 4 - - S 1022,7 16 -
06.12.2019 15:00:00 14,1 9,9 5 3 - - S 1022,8 15 0,0
06.12.2019 14:00:00 13,9 10,1 5 3 - - S 1023,7 13 0,0
06.12.2019 13:00:00 12,5 9,5 4 2 - - SW 1024,5 15 -
06.12.2019 12:00:00 11,4 10,0 4 2 - - SSW 1025,5 13 0,0

tt = temperature
td = dewpoint
ff = wind speed
fx = gusts
dd = wind direction
ppp = reduced air pressure
vv = visibility
rr = precipitation

Next stations